When you browse on this site, cookies collect data to enhance your experience and personalize the content and advertising you see.
Visit our Privacy Policy to learn more. By continuing to use the site, you agree to this use of cookies and data.
  • Em Portugal
  • Lista de países
  • Para 7 dias
  • Temperatura da água
  • Mapa do tempo
  • Widgets de tempo
  • user-avatar
    Iniciar Sessão

    Previsão horária em Shuvary

    Hoje, 21 Agosto, Quarta-feira

    Tempo Temperatura Precipitação Vento Pressão Humidade
    00:00 +18°C° 0 mm 1 m/s 751 mmHg 92%
    01:00 +18°C° 0 mm 1 m/s 751 mmHg 93%
    02:00 +18°C° 0 mm 1 m/s 751 mmHg 93%
    03:00 +16°C° 0 mm 1 m/s 751 mmHg 93%
    04:00 +16°C° 0 mm 1 m/s 751 mmHg 93%
    05:00 +18°C° 0 mm 1 m/s 751 mmHg 93%
    06:00 +18°C° 0 mm 1 m/s 751 mmHg 94%
    07:00 +18°C° 0 mm 2 m/s 751 mmHg 87%
    08:00 +20°C° 0 mm 2 m/s 752 mmHg 81%
    09:00 +23°C° 0 mm 2 m/s 752 mmHg 75%
    10:00 +24°C° 0 mm 2 m/s 752 mmHg 71%
    11:00 +25°C° 0 mm 2 m/s 752 mmHg 66%
    12:00 +26°C° 0 mm 3 m/s 751 mmHg 62%
    13:00 +26°C° 0 mm 3 m/s 751 mmHg 62%
    14:00 +26°C° 0 mm 3 m/s 751 mmHg 61%
    15:00 +27°C° 0 mm 2 m/s 751 mmHg 61%
    16:00 +26°C° 0 mm 2 m/s 751 mmHg 66%
    17:00 +25°C° 0 mm 2 m/s 751 mmHg 71%
    18:00 +25°C° 0 mm 2 m/s 751 mmHg 76%
    19:00 +23°C° 0 mm 2 m/s 751 mmHg 78%
    20:00 +21°C° 0 mm 2 m/s 751 mmHg 81%
    21:00 +20°C° 0 mm 1 m/s 751 mmHg 84%
    22:00 +20°C° 0 mm 1 m/s 751 mmHg 86%
    23:00 +20°C° 0 mm 1 m/s 751 mmHg 87%

    Amanhã, 22 Agosto, Quinta-feira

    Tempo Temperatura Precipitação Vento Pressão Humidade
    00:00 +19°C° 0 mm 1 m/s 751 mmHg 88%
    01:00 +19°C° 0 mm 1 m/s 751 mmHg 89%
    02:00 +19°C° 0 mm 1 m/s 751 mmHg 90%
    03:00 +19°C° 0 mm 1 m/s 751 mmHg 90%
    04:00 +17°C° 0 mm 0 m/s 751 mmHg 90%
    05:00 +17°C° 0 mm 0 m/s 750 mmHg 90%
    06:00 +17°C° 0 mm 0 m/s 750 mmHg 90%
    07:00 +21°C° 0 mm 1 m/s 750 mmHg 84%
    08:00 +22°C° 0 mm 1 m/s 750 mmHg 79%
    09:00 +24°C° 0 mm 1 m/s 750 mmHg 73%
    10:00 +25°C° 0 mm 1 m/s 750 mmHg 68%
    11:00 +26°C° 0 mm 1 m/s 750 mmHg 64%
    12:00 +27°C° 0 mm 1 m/s 750 mmHg 59%
    13:00 +27°C° 0 mm 1 m/s 750 mmHg 58%
    14:00 +27°C° 0 mm 1 m/s 749 mmHg 56%
    15:00 +28°C° 0 mm 1 m/s 749 mmHg 55%
    16:00 +27°C° 0 mm 1 m/s 749 mmHg 59%
    17:00 +26°C° 0 mm 1 m/s 749 mmHg 63%
    18:00 +26°C° 0 mm 1 m/s 748 mmHg 68%
    19:00 +24°C° 0 mm 1 m/s 748 mmHg 71%
    20:00 +23°C° 0 mm 1 m/s 749 mmHg 74%
    21:00 +19°C° 0 mm 0 m/s 749 mmHg 77%
    22:00 +21°C° 0 mm 1 m/s 749 mmHg 78%
    23:00 +21°C° 0 mm 1 m/s 749 mmHg 79%

    Depois de amanhã, 23 Agosto, Sexta-feira

    Tempo Temperatura Precipitação Vento Pressão Humidade
    00:00 +20°C° 0 mm 1 m/s 749 mmHg 80%
    01:00 +20°C° 0 mm 1 m/s 749 mmHg 85%
    02:00 +19°C° 0 mm 2 m/s 750 mmHg 89%
    03:00 +18°C° 0 mm 3 m/s 750 mmHg 93%
    04:00 +18°C° 0 mm 3 m/s 750 mmHg 92%
    05:00 +17°C° 0 mm 4 m/s 750 mmHg 91%
    06:00 +17°C° 0 mm 4 m/s 750 mmHg 89%
    07:00 +17°C° 0 mm 4 m/s 750 mmHg 87%
    08:00 +18°C° 0 mm 4 m/s 751 mmHg 84%
    09:00 +18°C° 0 mm 4 m/s 751 mmHg 81%
    10:00 +19°C° 0 mm 4 m/s 751 mmHg 76%
    11:00 +20°C° 0 mm 4 m/s 751 mmHg 70%
    12:00 +21°C° 0 mm 4 m/s 751 mmHg 64%
    13:00 +22°C° 0 mm 4 m/s 751 mmHg 62%
    14:00 +22°C° 0 mm 4 m/s 751 mmHg 60%
    15:00 +22°C° 0 mm 4 m/s 751 mmHg 58%
    16:00 +22°C° 0 mm 4 m/s 751 mmHg 62%
    17:00 +21°C° 0 mm 3 m/s 751 mmHg 67%
    18:00 +20°C° 0 mm 3 m/s 751 mmHg 71%
    19:00 +18°C° 0 mm 3 m/s 752 mmHg 73%
    20:00 +17°C° 0 mm 3 m/s 752 mmHg 75%
    21:00 +16°C° 0 mm 2 m/s 752 mmHg 76%
    22:00 +15°C° 0 mm 2 m/s 752 mmHg 78%
    23:00 +15°C° 0 mm 2 m/s 752 mmHg 79%

    24 Agosto, Sábado

    Tempo Temperatura Precipitação Vento Pressão Humidade
    00:00 +15°C° 0 mm 2 m/s 752 mmHg 80%
    01:00 +14°C° 0 mm 2 m/s 752 mmHg 82%
    02:00 +14°C° 0 mm 2 m/s 752 mmHg 84%
    03:00 +13°C° 0 mm 2 m/s 752 mmHg 86%
    04:00 +13°C° 0 mm 2 m/s 752 mmHg 86%
    05:00 +13°C° 0 mm 2 m/s 752 mmHg 86%
    06:00 +13°C° 0 mm 1 m/s 752 mmHg 87%
    07:00 +15°C° 0 mm 2 m/s 753 mmHg 80%
    08:00 +17°C° 0 mm 2 m/s 753 mmHg 74%
    09:00 +19°C° 0 mm 2 m/s 753 mmHg 68%
    10:00 +20°C° 0 mm 2 m/s 753 mmHg 63%
    11:00 +21°C° 0 mm 2 m/s 753 mmHg 58%
    12:00 +23°C° 0 mm 2 m/s 753 mmHg 53%
    13:00 +23°C° 0 mm 2 m/s 752 mmHg 52%
    14:00 +24°C° 0 mm 2 m/s 752 mmHg 51%
    15:00 +24°C° 0 mm 2 m/s 752 mmHg 50%
    16:00 +23°C° 0 mm 2 m/s 752 mmHg 55%
    17:00 +21°C° 0 mm 2 m/s 752 mmHg 61%
    18:00 +21°C° 0 mm 1 m/s 751 mmHg 66%
    19:00 +20°C° 0 mm 1 m/s 751 mmHg 69%
    20:00 +16°C° 0 mm 0 m/s 751 mmHg 72%
    21:00 +15°C° 0 mm 0 m/s 751 mmHg 75%
    22:00 +14°C° 0 mm 0 m/s 751 mmHg 76%
    23:00 +15°C° 0 mm 1 m/s 751 mmHg 77%

    25 Agosto, Domingo

    Tempo Temperatura Precipitação Vento Pressão Humidade
    00:00 +15°C° 0 mm 1 m/s 751 mmHg 79%
    01:00 +14°C° 0 mm 1 m/s 751 mmHg 79%
    02:00 +14°C° 0 mm 1 m/s 751 mmHg 80%
    03:00 +14°C° 0 mm 2 m/s 750 mmHg 81%
    04:00 +14°C° 0 mm 2 m/s 750 mmHg 82%
    05:00 +14°C° 0 mm 2 m/s 750 mmHg 83%
    06:00 +14°C° 0 mm 2 m/s 750 mmHg 83%
    07:00 +16°C° 0 mm 3 m/s 750 mmHg 78%
    08:00 +17°C° 0 mm 3 m/s 750 mmHg 73%
    09:00 +19°C° 0 mm 3 m/s 750 mmHg 68%
    10:00 +20°C° 0 mm 4 m/s 749 mmHg 65%
    11:00 +22°C° 0 mm 4 m/s 749 mmHg 61%
    12:00 +23°C° 0 mm 4 m/s 749 mmHg 58%
    13:00 +23°C° 0 mm 4 m/s 748 mmHg 57%
    14:00 +23°C° 0 mm 5 m/s 748 mmHg 57%
    15:00 +23°C° 0 mm 5 m/s 748 mmHg 56%
    16:00 +22°C° 0.2 mm 5 m/s 748 mmHg 63%
    17:00 +21°C° 0.2 mm 4 m/s 748 mmHg 71%
    18:00 +19°C° 0.2 mm 4 m/s 747 mmHg 78%
    19:00 +18°C° 0.4 mm 4 m/s 748 mmHg 83%
    20:00 +17°C° 0.4 mm 3 m/s 748 mmHg 89%
    21:00 +16°C° 0.4 mm 2 m/s 748 mmHg 94%
    22:00 +14°C° 0 mm 3 m/s 748 mmHg 93%
    23:00 +13°C° 0 mm 3 m/s 749 mmHg 93%

    26 Agosto, Segunda-feira

    Tempo Temperatura Precipitação Vento Pressão Humidade
    00:00 +13°C° 0 mm 3 m/s 749 mmHg 93%
    01:00 +12°C° 0 mm 3 m/s 749 mmHg 94%
    02:00 +11°C° 0 mm 3 m/s 750 mmHg 95%
    03:00 +10°C° 0 mm 3 m/s 750 mmHg 96%
    04:00 +10°C° 0 mm 3 m/s 750 mmHg 96%
    05:00 +10°C° 0 mm 3 m/s 751 mmHg 96%
    06:00 +10°C° 0 mm 3 m/s 751 mmHg 97%
    07:00 +11°C° 0 mm 4 m/s 751 mmHg 92%
    08:00 +12°C° 0 mm 4 m/s 752 mmHg 88%
    09:00 +12°C° 0 mm 4 m/s 752 mmHg 83%
    10:00 +13°C° 0 mm 4 m/s 753 mmHg 79%
    11:00 +13°C° 0 mm 4 m/s 753 mmHg 76%
    12:00 +13°C° 0 mm 4 m/s 753 mmHg 72%
    13:00 +14°C° 0 mm 4 m/s 753 mmHg 68%
    14:00 +17°C° 0 mm 4 m/s 753 mmHg 64%
    15:00 +18°C° 0 mm 3 m/s 753 mmHg 60%
    16:00 +17°C° 0 mm 3 m/s 754 mmHg 64%
    17:00 +16°C° 0 mm 2 m/s 754 mmHg 68%
    18:00 +16°C° 0 mm 2 m/s 754 mmHg 73%
    19:00 +14°C° 0 mm 2 m/s 754 mmHg 76%
    20:00 +13°C° 0 mm 2 m/s 754 mmHg 80%
    21:00 +12°C° 0 mm 2 m/s 754 mmHg 83%
    22:00 +10°C° 0 mm 2 m/s 754 mmHg 85%
    23:00 +9°C° 0 mm 2 m/s 754 mmHg 87%
    Mostrar mais